| time (UTC) | temp F | wind direction | speed MPH | gust MPH | rain 1hr in | rain 24hr in | rain mn in | humidity % | barometer mb |
| 20260502181016 | 71 | 0.0 | 0.0 | 0.00 | 0.00 | 0.00 | 42 | 1016.2 | |
| 20260502180521 | 71 | 0.0 | 0.0 | 0.00 | 0.00 | 0.00 | 41 | 1016.2 | |
| 20260502164024 | 77 | 312 | 1.0 | 7.0 | 0.00 | 0.00 | 0.00 | 33 | 1016.7 |
| 20260502163635 | 77 | 354 | 1.0 | 6.0 | 0.00 | 0.00 | 0.00 | 35 | 1017.2 |
| 20260502163022 | 77 | 281 | 2.0 | 8.0 | 0.00 | 0.00 | 0.00 | 37 | 1017.2 |
| 20260502162515 | 77 | 294 | 2.0 | 5.0 | 0.00 | 0.00 | 0.00 | 37 | 1017.2 |
| 20260502162021 | 78 | 300 | 1.0 | 5.0 | 0.00 | 0.00 | 0.00 | 37 | 1017.2 |
| 20260502161714 | 78 | 312 | 2.0 | 7.0 | 0.00 | 0.00 | 0.00 | 37 | 1017.3 |
| 20260502161050 | 78 | 305 | 1.0 | 5.0 | 0.00 | 0.00 | 0.00 | 37 | 1017.3 |
| 20260502160909 | 78 | 283 | 2.0 | 6.0 | 0.00 | 0.00 | 0.00 | 35 | 1017.2 |
| 20260502152022 | 79 | 300 | 2.0 | 8.0 | 0.00 | 0.00 | 0.00 | 35 | 1017.2 |
| 20260502151515 | 79 | 280 | 3.0 | 8.0 | 0.00 | 0.00 | 0.00 | 34 | 1017.3 |
| 20260502151021 | 79 | 293 | 3.0 | 7.0 | 0.00 | 0.00 | 0.00 | 33 | 1017.5 |
| 20260502150526 | 79 | 280 | 2.0 | 5.0 | 0.00 | 0.00 | 0.00 | 34 | 1018.3 |
| 20260502130527 | 79 | 357 | 1.0 | 2.0 | 0.00 | 0.00 | 0.00 | 46 | 1019.4 |
| 20260502123551 | 79 | 286 | 2.0 | 8.0 | 0.00 | 0.00 | 0.00 | 46 | 1019.9 |
| 20260502123039 | 78 | 288 | 2.0 | 5.0 | 0.00 | 0.00 | 0.00 | 48 | 1020.4 |
| 20260502122531 | 78 | 288 | 2.0 | 6.0 | 0.00 | 0.00 | 0.00 | 47 | 1020.4 |
| 20260502122044 | 78 | 321 | 2.0 | 2.0 | 0.00 | 0.00 | 0.00 | 48 | 1020.4 |
| 20260502121516 | 78 | 2 | 2.0 | 5.0 | 0.00 | 0.00 | 0.00 | 49 | 1020.4 |
| 20260502121136 | 78 | 304 | 2.0 | 7.0 | 0.00 | 0.00 | 0.00 | 48 | 1020.4 |
| 20260502120526 | 78 | 329 | 0.0 | 2.0 | 0.00 | 0.00 | 0.00 | 50 | 1020.4 |
| 20260502115524 | 78 | 317 | 2.0 | 5.0 | 0.00 | 0.00 | 0.00 | 49 | 1020.4 |
| 20260502115017 | 78 | 315 | 1.0 | 5.0 | 0.00 | 0.00 | 0.00 | 49 | 1020.4 |
| 20260502114522 | 77 | 349 | 1.0 | 5.0 | 0.00 | 0.00 | 0.00 | 51 | 1020.4 |
| 20260502114027 | 77 | 325 | 2.0 | 6.0 | 0.00 | 0.00 | 0.00 | 50 | 1020.4 |
| 20260502113519 | 77 | 317 | 1.0 | 3.0 | 0.00 | 0.00 | 0.00 | 50 | 1020.4 |
| 20260502113024 | 77 | 298 | 2.0 | 6.0 | 0.00 | 0.00 | 0.00 | 50 | 1020.4 |
| 20260502112517 | 76 | 311 | 1.0 | 2.0 | 0.00 | 0.00 | 0.00 | 51 | 1020.4 |
| 20260502112022 | 76 | 303 | 2.0 | 5.0 | 0.00 | 0.00 | 0.00 | 51 | 1020.5 |
| 20260502111527 | 75 | 281 | 2.0 | 6.0 | 0.00 | 0.00 | 0.00 | 51 | 1021.4 |
| 20260502111050 | 75 | 319 | 2.0 | 7.0 | 0.00 | 0.00 | 0.00 | 52 | 1021.4 |
| 20260502110538 | 74 | 304 | 1.0 | 5.0 | 0.00 | 0.00 | 0.00 | 52 | 1021.4 |
| 20260502110031 | 74 | 319 | 2.0 | 5.0 | 0.00 | 0.00 | 0.00 | 53 | 1021.4 |
| 20260502105554 | 74 | 285 | 3.0 | 9.0 | 0.00 | 0.00 | 0.00 | 52 | 1021.4 |
| 20260502105016 | 74 | 336 | 2.0 | 7.0 | 0.00 | 0.00 | 0.00 | 53 | 1021.4 |
| 20260502104555 | 75 | 291 | 2.0 | 8.0 | 0.00 | 0.00 | 0.00 | 52 | 1021.4 |
| 20260502104018 | 74 | 330 | 2.0 | 6.0 | 0.00 | 0.00 | 0.00 | 51 | 1021.4 |
| 20260502103552 | 74 | 281 | 2.0 | 5.0 | 0.00 | 0.00 | 0.00 | 53 | 1021.4 |
| 20260502103015 | 74 | 276 | 2.0 | 7.0 | 0.00 | 0.00 | 0.00 | 53 | 1021.4 |
| 20260502102550 | 74 | 329 | 2.0 | 6.0 | 0.00 | 0.00 | 0.00 | 53 | 1021.4 |
| 20260502102025 | 74 | 296 | 2.0 | 7.0 | 0.00 | 0.00 | 0.00 | 53 | 1021.4 |
| 20260502101022 | 74 | 302 | 2.0 | 6.0 | 0.00 | 0.00 | 0.00 | 54 | 1021.4 |
| 20260502100515 | 74 | 314 | 1.0 | 6.0 | 0.00 | 0.00 | 0.00 | 54 | 1021.4 |
| 20260502091516 | 71 | 29 | 1.0 | 3.0 | 0.00 | 0.00 | 0.00 | 54 | 1022.4 |
| 20260502091051 | 71 | 5 | 1.0 | 3.0 | 0.00 | 0.00 | 0.00 | 55 | 1022.4 |
| 20260502090526 | 71 | 293 | 2.0 | 3.0 | 0.00 | 0.00 | 0.00 | 54 | 1022.4 |
| 20260502090331 | 70 | 313 | 1.0 | 2.0 | 0.00 | 0.00 | 0.00 | 55 | 1022.4 |
| 20260502071522 | 63 | 0.0 | 0.0 | 0.00 | 0.00 | 0.00 | 58 | 1023.4 | |
| 20260502071056 | 62 | 4 | 0.0 | 0.0 | 0.00 | 0.00 | 0.00 | 59 | 1023.4 |
| 20260502070517 | 61 | 0.0 | 0.0 | 0.00 | 0.00 | 0.00 | 62 | 1023.4 | |
| 20260502070022 | 60 | 0.0 | 0.0 | 0.00 | 0.00 | 0.00 | 63 | 1023.4 | |
| 20260502065657 | 59 | 0.0 | 0.0 | 0.00 | 0.00 | 0.00 | 64 | 1023.4 | |
| 20260502065017 | 58 | 0.0 | 0.0 | 0.00 | 0.00 | 0.00 | 67 | 1023.4 | |
| 20260502064521 | 57 | 0.0 | 0.0 | 0.00 | 0.00 | 0.00 | 70 | 1023.4 | |
| 20260502064233 | 56 | 0.0 | 0.0 | 0.00 | 0.00 | 0.00 | 72 | 1023.4 | |
| 20260502063517 | 56 | 0.0 | 0.0 | 0.00 | 0.00 | 0.00 | 72 | 1023.5 | |
| 20260502063021 | 55 | 0.0 | 0.0 | 0.00 | 0.00 | 0.00 | 72 | 1023.4 | |
| 20260502062524 | 55 | 0.0 | 0.0 | 0.00 | 0.00 | 0.00 | 74 | 1023.4 | |
| 20260502062045 | 54 | 0.0 | 0.0 | 0.00 | 0.00 | 0.00 | 74 | 1023.4 | |
| 20260502061549 | 54 | 0.0 | 0.0 | 0.00 | 0.00 | 0.00 | 75 | 1023.4 | |
| 20260502061023 | 52 | 0.0 | 0.0 | 0.00 | 0.00 | 0.00 | 79 | 1023.4 | |
| 20260502060515 | 51 | 357 | 0.0 | 1.0 | 0.00 | 0.00 | 0.00 | 82 | 1023.4 |
| 20260502060019 | 49 | 0.0 | 0.0 | 0.00 | 0.00 | 0.00 | 86 | 1023.4 | |
| 20260502055524 | 48 | 360 | 0.0 | 1.0 | 0.00 | 0.00 | 0.00 | 87 | 1023.3 |
| 20260502055016 | 46 | 0.0 | 0.0 | 0.00 | 0.00 | 0.00 | 95 | 1023.3 | |
| 20260502054520 | 44 | 360 | 0.0 | 1.0 | 0.00 | 0.00 | 0.00 | 95 | 1023.2 |
| 20260502054024 | 44 | 321 | 0.0 | 1.0 | 0.00 | 0.00 | 0.00 | 96 | 1022.2 |
| 20260502053516 | 43 | 322 | 0.0 | 1.0 | 0.00 | 0.00 | 0.00 | 97 | 1022.2 |
| 20260502053021 | 43 | 0.0 | 0.0 | 0.00 | 0.00 | 0.00 | 97 | 1022.2 | |
| 20260502052525 | 43 | 0.0 | 0.0 | 0.00 | 0.00 | 0.00 | 98 | 1023.2 | |
| 20260502052018 | 42 | 0.0 | 0.0 | 0.00 | 0.00 | 0.00 | 99 | 1023.2 | |
| 20260502051552 | 42 | 0.0 | 0.0 | 0.00 | 0.00 | 0.00 | 99 | 1023.2 | |
| 20260502051026 | 41 | 0.0 | 0.0 | 0.00 | 0.00 | 0.00 | 99 | 1023.1 | |
| 20260502050518 | 41 | 0.0 | 0.0 | 0.00 | 0.00 | 0.00 | 99 | 1023.2 | |
| 20260502050036 | 41 | 0.0 | 0.0 | 0.00 | 0.00 | 0.00 | 99 | 1023.2 | |
| 20260502045528 | 41 | 0.0 | 0.0 | 0.00 | 0.00 | 0.00 | 99 | 1023.2 | |
| 20260502045021 | 41 | 0.0 | 0.0 | 0.00 | 0.00 | 0.00 | 99 | 1023.2 | |
| 20260502044524 | 40 | 0.0 | 0.0 | 0.00 | 0.00 | 0.00 | 99 | 1023.1 | |
| 20260502044016 | 40 | 0.0 | 0.0 | 0.00 | 0.00 | 0.00 | 99 | 1022.3 | |
| 20260502043527 | 40 | 0.0 | 0.0 | 0.00 | 0.00 | 0.00 | 99 | 1022.2 | |
| 20260502043024 | 40 | 0.0 | 0.0 | 0.00 | 0.00 | 0.00 | 99 | 1022.2 | |
| 20260502042600 | 40 | 0.0 | 0.0 | 0.00 | 0.00 | 0.00 | 99 | 1022.2 | |
| 20260502042052 | 40 | 0.0 | 0.0 | 0.00 | 0.00 | 0.00 | 99 | 1022.2 | |
| 20260502041525 | 40 | 0.0 | 0.0 | 0.00 | 0.00 | 0.00 | 99 | 1022.2 | |
| 20260502041018 | 40 | 0.0 | 0.0 | 0.00 | 0.00 | 0.00 | 99 | 1022.2 | |
| 20260502040522 | 40 | 0.0 | 0.0 | 0.00 | 0.00 | 0.00 | 99 | 1022.2 | |
| 20260502040026 | 40 | 0.0 | 0.0 | 0.00 | 0.00 | 0.00 | 99 | 1022.2 | |
| 20260502035619 | 40 | 0.0 | 0.0 | 0.00 | 0.00 | 0.00 | 99 | 1023.2 | |
| 20260502035023 | 40 | 0.0 | 0.0 | 0.00 | 0.00 | 0.00 | 99 | 1023.2 | |
| 20260502034515 | 40 | 0.0 | 0.0 | 0.00 | 0.00 | 0.00 | 98 | 1023.2 | |
| 20260502034156 | 40 | 0.0 | 0.0 | 0.00 | 0.00 | 0.00 | 99 | 1023.2 | |
| 20260502033524 | 40 | 0.0 | 0.0 | 0.00 | 0.00 | 0.00 | 99 | 1023.2 | |
| 20260502033045 | 40 | 0.0 | 0.0 | 0.00 | 0.00 | 0.00 | 99 | 1023.2 | |
| 20260502032520 | 40 | 0.0 | 0.0 | 0.00 | 0.00 | 0.00 | 99 | 1022.9 | |
| 20260502032025 | 40 | 0.0 | 0.0 | 0.00 | 0.00 | 0.00 | 98 | 1022.2 | |
| 20260502031517 | 40 | 0.0 | 0.0 | 0.00 | 0.00 | 0.00 | 99 | 1022.2 | |
| 20260502031051 | 40 | 0.0 | 0.0 | 0.00 | 0.00 | 0.00 | 98 | 1022.5 | |
| 20260502030526 | 40 | 0.0 | 0.0 | 0.00 | 0.00 | 0.00 | 99 | 1023.2 | |
| 20260502030018 | 40 | 0.0 | 0.0 | 0.00 | 0.00 | 0.00 | 98 | 1023.2 | |
| 20260502025523 | 41 | 0.0 | 0.0 | 0.00 | 0.00 | 0.00 | 98 | 1023.0 | |
| 20260502025014 | 41 | 0.0 | 0.0 | 0.00 | 0.00 | 0.00 | 98 | 1022.2 | |
| 20260502024520 | 41 | 0.0 | 0.0 | 0.00 | 0.00 | 0.00 | 98 | 1022.2 | |
| 20260502024024 | 41 | 0.0 | 0.0 | 0.00 | 0.00 | 0.00 | 98 | 1022.4 | |
| 20260502023516 | 41 | 0.0 | 0.0 | 0.00 | 0.00 | 0.00 | 98 | 1023.2 | |
| 20260502023021 | 41 | 0.0 | 0.0 | 0.00 | 0.00 | 0.00 | 97 | 1023.2 | |
| 20260502022539 | 41 | 0.0 | 0.0 | 0.00 | 0.00 | 0.00 | 98 | 1023.2 | |
| 20260502022031 | 41 | 0.0 | 0.0 | 0.00 | 0.00 | 0.00 | 98 | 1022.2 | |
| 20260502021523 | 41 | 0.0 | 0.0 | 0.00 | 0.00 | 0.00 | 97 | 1022.2 | |
| 20260502021016 | 41 | 0.0 | 0.0 | 0.00 | 0.00 | 0.00 | 97 | 1022.2 | |
| 20260502020519 | 41 | 0.0 | 0.0 | 0.00 | 0.00 | 0.00 | 96 | 1023.2 | |
| 20260502020024 | 41 | 0.0 | 0.0 | 0.00 | 0.00 | 0.00 | 97 | 1023.2 | |
| 20260502015516 | 41 | 0.0 | 0.0 | 0.00 | 0.00 | 0.00 | 97 | 1023.2 | |
| 20260502015020 | 41 | 0.0 | 0.0 | 0.00 | 0.00 | 0.00 | 96 | 1023.2 | |
| 20260502014525 | 41 | 0.0 | 0.0 | 0.00 | 0.00 | 0.00 | 96 | 1023.2 | |
| 20260502014018 | 42 | 0.0 | 0.0 | 0.00 | 0.00 | 0.00 | 95 | 1023.2 | |
| 20260502013522 | 42 | 0.0 | 0.0 | 0.00 | 0.00 | 0.00 | 96 | 1023.2 | |
| 20260502013027 | 42 | 0.0 | 0.0 | 0.00 | 0.00 | 0.00 | 96 | 1023.2 | |
| 20260502012519 | 42 | 0.0 | 0.0 | 0.00 | 0.00 | 0.00 | 96 | 1023.2 | |
| 20260502012054 | 42 | 0.0 | 0.0 | 0.00 | 0.00 | 0.00 | 96 | 1022.4 | |
| 20260502011516 | 42 | 0.0 | 0.0 | 0.00 | 0.00 | 0.00 | 95 | 1022.2 | |
| 20260502011021 | 42 | 0.0 | 0.0 | 0.00 | 0.00 | 0.00 | 95 | 1022.2 | |
| 20260502010910 | 42 | 0.0 | 0.0 | 0.00 | 0.00 | 0.00 | 95 | 1023.0 | |
| 20260502005524 | 43 | 0.0 | 0.0 | 0.00 | 0.00 | 0.00 | 95 | 1023.2 | |
| 20260502005016 | 43 | 0.0 | 0.0 | 0.00 | 0.00 | 0.00 | 95 | 1023.2 | |
| 20260502004520 | 43 | 0.0 | 0.0 | 0.00 | 0.00 | 0.00 | 95 | 1023.2 | |
| 20260502004024 | 43 | 0.0 | 0.0 | 0.00 | 0.00 | 0.00 | 94 | 1023.2 | |
| 20260502003517 | 43 | 0.0 | 0.0 | 0.00 | 0.00 | 0.00 | 94 | 1023.2 | |
| 20260502003022 | 43 | 0.0 | 0.0 | 0.00 | 0.00 | 0.00 | 93 | 1023.2 | |
| 20260502002557 | 43 | 0.0 | 0.0 | 0.00 | 0.00 | 0.00 | 92 | 1023.2 | |
| 20260502002020 | 43 | 0.0 | 0.0 | 0.00 | 0.00 | 0.00 | 92 | 1023.2 | |
| 20260502001524 | 43 | 0.0 | 0.0 | 0.00 | 0.00 | 0.00 | 92 | 1023.2 | |
| 20260502001017 | 44 | 0.0 | 0.0 | 0.00 | 0.00 | 0.00 | 92 | 1023.2 | |
| 20260502000521 | 44 | 0.0 | 0.0 | 0.00 | 0.00 | 0.00 | 93 | 1023.2 | |
| 20260502000026 | 44 | 0.0 | 0.0 | 0.00 | 0.00 | 0.00 | 92 | 1023.2 | |
| 20260501235519 | 44 | 0.0 | 0.0 | 0.00 | 0.00 | 0.00 | 90 | 1023.2 | |
| 20260501235023 | 44 | 0.0 | 0.0 | 0.00 | 0.00 | 0.00 | 89 | 1023.2 | |
| 20260501234516 | 44 | 0.0 | 0.0 | 0.00 | 0.00 | 0.00 | 89 | 1023.2 | |
| 20260501234020 | 45 | 0.0 | 0.0 | 0.00 | 0.00 | 0.00 | 89 | 1023.2 | |
| 20260501233525 | 45 | 0.0 | 0.0 | 0.00 | 0.00 | 0.00 | 89 | 1023.2 | |
| 20260501233017 | 45 | 0.0 | 0.0 | 0.00 | 0.00 | 0.00 | 89 | 1023.2 | |
| 20260501232522 | 45 | 0.0 | 0.0 | 0.00 | 0.00 | 0.00 | 89 | 1023.2 | |
| 20260501232027 | 45 | 0.0 | 0.0 | 0.00 | 0.00 | 0.00 | 89 | 1023.2 | |
| 20260501231519 | 45 | 0.0 | 0.0 | 0.00 | 0.00 | 0.00 | 89 | 1023.2 | |
| 20260501231054 | 46 | 0.0 | 0.0 | 0.00 | 0.00 | 0.00 | 88 | 1023.2 | |
| 20260501230516 | 46 | 0.0 | 0.0 | 0.00 | 0.00 | 0.00 | 88 | 1023.2 | |
| 20260501230051 | 46 | 0.0 | 0.0 | 0.00 | 0.00 | 0.00 | 87 | 1023.2 | |
| 20260501225526 | 46 | 0.0 | 0.0 | 0.00 | 0.00 | 0.00 | 87 | 1023.2 | |
| 20260501225018 | 46 | 0.0 | 0.0 | 0.00 | 0.00 | 0.00 | 87 | 1023.2 | |
| 20260501224519 | 47 | 0.0 | 0.0 | 0.00 | 0.00 | 0.00 | 87 | 1023.2 | |
| 20260501224024 | 47 | 0.0 | 0.0 | 0.00 | 0.00 | 0.00 | 86 | 1023.2 | |
| 20260501223517 | 47 | 0.0 | 0.0 | 0.00 | 0.00 | 0.00 | 85 | 1023.2 | |
| 20260501223121 | 47 | 0.0 | 0.0 | 0.00 | 0.00 | 0.00 | 85 | 1023.2 | |
| 20260501222526 | 47 | 0.0 | 0.0 | 0.00 | 0.00 | 0.00 | 85 | 1023.2 | |
| 20260501222018 | 47 | 0.0 | 0.0 | 0.00 | 0.00 | 0.00 | 85 | 1023.2 | |
| 20260501221553 | 48 | 0.0 | 0.0 | 0.00 | 0.00 | 0.00 | 84 | 1023.2 | |
| 20260501221016 | 48 | 0.0 | 0.0 | 0.00 | 0.00 | 0.00 | 83 | 1023.2 | |
| 20260501220520 | 48 | 0.0 | 0.0 | 0.00 | 0.00 | 0.00 | 82 | 1023.2 | |
| 20260501220055 | 48 | 0.0 | 0.0 | 0.00 | 0.00 | 0.00 | 80 | 1023.1 | |
| 20260501215518 | 48 | 0.0 | 0.0 | 0.00 | 0.00 | 0.00 | 80 | 1023.1 | |
| 20260501215023 | 48 | 0.0 | 0.0 | 0.00 | 0.00 | 0.00 | 81 | 1023.2 | |
| 20260501214615 | 49 | 0.0 | 0.0 | 0.00 | 0.00 | 0.00 | 81 | 1023.2 | |
| 20260501214050 | 49 | 0.0 | 0.0 | 0.00 | 0.00 | 0.00 | 78 | 1023.1 | |
| 20260501213525 | 49 | 0.0 | 0.0 | 0.00 | 0.00 | 0.00 | 77 | 1023.1 | |
| 20260501213017 | 50 | 0.0 | 0.0 | 0.00 | 0.00 | 0.00 | 78 | 1023.2 | |
| 20260501212536 | 50 | 0.0 | 0.0 | 0.00 | 0.00 | 0.00 | 78 | 1023.2 | |
| 20260501212028 | 50 | 0.0 | 0.0 | 0.00 | 0.00 | 0.00 | 77 | 1023.2 | |
| 20260501211521 | 50 | 0.0 | 0.0 | 0.00 | 0.00 | 0.00 | 75 | 1023.2 | |
| 20260501211125 | 50 | 0.0 | 0.0 | 0.00 | 0.00 | 0.00 | 74 | 1023.2 | |
| 20260501210517 | 51 | 0.0 | 0.0 | 0.00 | 0.00 | 0.00 | 73 | 1023.2 | |
| 20260501210023 | 51 | 0.0 | 0.0 | 0.00 | 0.00 | 0.00 | 73 | 1023.2 | |
| 20260501205515 | 51 | 0.0 | 0.0 | 0.00 | 0.00 | 0.00 | 73 | 1023.2 | |
| 20260501205021 | 52 | 0.0 | 0.0 | 0.00 | 0.00 | 0.00 | 72 | 1023.2 | |
| 20260501204525 | 52 | 0.0 | 0.0 | 0.00 | 0.00 | 0.00 | 71 | 1023.2 | |
| 20260501204018 | 52 | 0.0 | 0.0 | 0.00 | 0.00 | 0.00 | 70 | 1023.1 | |
| 20260501203523 | 52 | 0.0 | 0.0 | 0.00 | 0.00 | 0.00 | 70 | 1023.2 | |
| 20260501203116 | 53 | 0.0 | 0.0 | 0.00 | 0.00 | 0.00 | 69 | 1023.1 | |
| 20260501202521 | 53 | 0.0 | 0.0 | 0.00 | 0.00 | 0.00 | 69 | 1023.2 | |
| 20260501202025 | 53 | 0.0 | 0.0 | 0.00 | 0.00 | 0.00 | 69 | 1023.2 | |
| 20260501201519 | 53 | 0.0 | 0.0 | 0.00 | 0.00 | 0.00 | 69 | 1023.2 | |
| 20260501201053 | 54 | 0.0 | 0.0 | 0.00 | 0.00 | 0.00 | 67 | 1023.2 | |
| 20260501200516 | 54 | 0.0 | 0.0 | 0.00 | 0.00 | 0.00 | 67 | 1023.2 | |
| 20260501200021 | 54 | 0.0 | 0.0 | 0.00 | 0.00 | 0.00 | 67 | 1023.2 | |
| 20260501195526 | 55 | 0.0 | 0.0 | 0.00 | 0.00 | 0.00 | 65 | 1023.2 | |
| 20260501195019 | 55 | 0.0 | 0.0 | 0.00 | 0.00 | 0.00 | 65 | 1023.2 | |
| 20260501194554 | 55 | 0.0 | 0.0 | 0.00 | 0.00 | 0.00 | 65 | 1023.2 | |
| 20260501194017 | 56 | 0.0 | 0.0 | 0.00 | 0.00 | 0.00 | 63 | 1023.2 | |
| 20260501193522 | 56 | 0.0 | 0.0 | 0.00 | 0.00 | 0.00 | 62 | 1023.2 | |
| 20260501193015 | 56 | 0.0 | 0.0 | 0.00 | 0.00 | 0.00 | 61 | 1023.1 | |
| 20260501192550 | 57 | 0.0 | 0.0 | 0.00 | 0.00 | 0.00 | 61 | 1023.2 | |
| 20260501192025 | 58 | 0.0 | 0.0 | 0.00 | 0.00 | 0.00 | 58 | 1023.2 | |
| 20260501191518 | 58 | 0.0 | 0.0 | 0.00 | 0.00 | 0.00 | 58 | 1022.9 | |
| 20260501191023 | 59 | 0.0 | 0.0 | 0.00 | 0.00 | 0.00 | 55 | 1022.2 | |
| 20260501190516 | 59 | 0.0 | 0.0 | 0.00 | 0.00 | 0.00 | 54 | 1022.2 | |
| 20260501190051 | 60 | 0.0 | 0.0 | 0.00 | 0.00 | 0.00 | 54 | 1022.4 | |
| 20260501185526 | 60 | 0.0 | 0.0 | 0.00 | 0.00 | 0.00 | 52 | 1023.2 | |
| 20260501185019 | 61 | 0.0 | 0.0 | 0.00 | 0.00 | 0.00 | 51 | 1023.2 | |
| 20260501184524 | 61 | 0.0 | 0.0 | 0.00 | 0.00 | 0.00 | 52 | 1023.2 | |
| 20260501184047 | 62 | 0.0 | 0.0 | 0.00 | 0.00 | 0.00 | 49 | 1023.2 | |
| 20260501183522 | 63 | 0.0 | 0.0 | 0.00 | 0.00 | 0.00 | 48 | 1023.2 | |
| 20260501183045 | 63 | 339 | 0.0 | 0.0 | 0.00 | 0.00 | 0.00 | 47 | 1023.2 |
| 20260501182520 | 64 | 0.0 | 0.0 | 0.00 | 0.00 | 0.00 | 45 | 1022.2 | |
| 20260501182025 | 65 | 0.0 | 0.0 | 0.00 | 0.00 | 0.00 | 43 | 1022.2 | |
| 20260501181618 | 66 | 0.0 | 0.0 | 0.00 | 0.00 | 0.00 | 43 | 1022.3 |